Location: Newark
(50.8922°N, 11.6094°E)
Time: 10:55:38
(UTC+00:00)

N. Korean satellite - Pass Details

Date: 30 January 2020
Orbit: 456 x 505 km, 97.2° (Epoch: 19 February)

Event Time Altitude Azimuth Distance (km) Brightness Sun altitude
Rises 05:06:34 0° 14° (NNE) 2,552 10.3 -16.9°
Reaches altitude 10° 05:08:38 10° 16° (NNE) 1,676 9.4 -16.5°
Maximum altitude 05:12:14 77° 102° (ESE) 509 6.7 -16.0°
Drops below altitude 10° 05:15:53 10° 189° (S) 1,689 9.3 -15.4°
Sets 05:17:58 0° 191° (S) 2,573 10.2 -15.1°
